TimeEDT,TemperatureF,Dew PointF,Humidity,Sea Level PressureIn,VisibilityMPH,Wind Direction,Wind SpeedMPH,Gust SpeedMPH,PrecipitationIn,Events,Conditions,WindDirDegrees,DateUTC
12:01 AM,28.4,24.8,86,29.72,10.0,Calm,Calm,-,N/A,,Overcast,0,2013-03-20 04:01:00
12:28 AM,28.4,24.8,86,29.71,3.0,Calm,Calm,-,0.00,Snow,Light Snow,0,2013-03-20 04:28:00
12:48 AM,28.4,24.8,86,29.71,9.0,West,13.8,23.0,0.00,,Overcast,280,2013-03-20 04:48:00
12:52 AM,28.9,23.0,78,29.73,9.0,WNW,10.4,23.0,0.00,,Overcast,290,2013-03-20 04:52:00
12:59 AM,28.4,23.0,80,29.71,10.0,WNW,11.5,20.7,N/A,,Overcast,290,2013-03-20 04:59:00
1:52 AM,26.1,19.0,75,29.73,10.0,WNW,5.8,-,N/A,,Scattered Clouds,300,2013-03-20 05:52:00
2:52 AM,26.1,17.1,69,29.73,10.0,West,4.6,-,N/A,,Clear,280,2013-03-20 06:52:00
3:52 AM,24.1,17.1,75,29.74,10.0,Calm,Calm,-,N/A,,Clear,0,2013-03-20 07:52:00
4:52 AM,24.1,17.1,75,29.74,10.0,West,4.6,-,N/A,,Clear,260,2013-03-20 08:52:00
5:52 AM,24.1,17.1,75,29.76,10.0,West,10.4,16.1,N/A,,Clear,260,2013-03-20 09:52:00
6:52 AM,23.0,16.0,74,29.78,10.0,SSW,4.6,-,N/A,,Mostly Cloudy,200,2013-03-20 10:52:00
7:52 AM,23.0,16.0,74,29.78,10.0,SSW,4.6,-,N/A,,Partly Cloudy,200,2013-03-20 11:52:00
8:52 AM,26.1,17.1,69,29.77,10.0,West,6.9,-,N/A,,Partly Cloudy,270,2013-03-20 12:52:00
9:52 AM,27.0,19.0,72,29.77,10.0,West,10.4,17.3,N/A,,Scattered Clouds,270,2013-03-20 13:52:00
10:52 AM,28.9,18.0,64,29.77,10.0,WSW,12.7,19.6,N/A,,Overcast,250,2013-03-20 14:52:00
11:52 AM,30.0,18.0,61,29.77,10.0,West,13.8,21.9,N/A,,Scattered Clouds,260,2013-03-20 15:52:00
12:52 PM,30.9,17.1,57,29.77,10.0,West,12.7,25.3,N/A,,Mostly Cloudy,270,2013-03-20 16:52:00
1:52 PM,32.0,19.0,59,29.77,10.0,WSW,15.0,19.6,0.00,,Overcast,250,2013-03-20 17:52:00
2:52 PM,33.1,18.0,54,29.75,10.0,SW,12.7,20.7,0.00,,Overcast,230,2013-03-20 18:52:00
3:52 PM,34.0,17.1,50,29.75,10.0,WSW,12.7,21.9,N/A,,Overcast,240,2013-03-20 19:52:00
4:52 PM,34.0,18.0,52,29.75,10.0,WSW,11.5,21.9,N/A,,Scattered Clouds,250,2013-03-20 20:52:00
5:52 PM,34.0,16.0,48,29.76,10.0,West,12.7,21.9,N/A,,Partly Cloudy,270,2013-03-20 21:52:00
6:52 PM,32.0,15.1,50,29.78,10.0,WSW,9.2,-,N/A,,Clear,250,2013-03-20 22:52:00
7:52 PM,30.0,16.0,56,29.79,10.0,Calm,Calm,-,N/A,,Clear,0,2013-03-20 23:52:00
8:52 PM,24.1,17.1,75,29.80,10.0,Calm,Calm,-,N/A,,Clear,0,2013-03-21 00:52:00
10:52 PM,21.0,18.0,88,29.82,10.0,Calm,Calm,-,N/A,,Clear,0,2013-03-21 02:52:00
11:52 PM,18.0,17.1,96,29.81,9.0,Calm,Calm,-,N/A,,Mostly Cloudy,0,2013-03-21 03:52:00